Weather in Novovyatsk

Russia / Kirov Oblast     58°30′31″N   49°35′40″E
В апреле 2022 года жителям России запретили посещать сайт meteo.paraplan.net по решению Генеральной прокуратуры. Аудитория сайта уменьшилась в 10 раз. Владельцы сайта не видят смысла в поддержке погодного сервера в таких условиях. Сайт будет закрыт в октябре.
temp.,
°C
wind,
m/s
gust,
m/s
humid.,
%
clouds,
%
prec.,
mm/h
press.,
hPa
HPBL,
m
4 october, tue
tue400:00+11s5126370 0.0 1018425
03:00+10sse5126599 0.0 1019431
06:00+10sse41266100 0.0 1021445
09:00+10sse41062100 0.0 1022529
12:00+11sse51059100 0.0 1023650
15:00+9sse61480100 0.3 1024870
18:00+9s6127997 0.3 1024738
21:00+7sse41075100 0.3 1024389
5 october, wed
wed500:00+8se4116690 0.0 1023321
03:00+8s51357100 0.0 1023447
06:00+7sse51265100 0.2 1022503
09:00+7sse51185100 0.4 1021756
12:00+7sse61181100 0.4 1020678
15:00+8sse5118490 0.6 1020583
18:00+8sse51187100 0.4 1019518
21:00+8sse51183100 0.5 1018403
6 october, thu
thu600:00+7sse4108053 0.0 1017343
03:00+7sse4983100 0.2 1015397
06:00+6se3795100 2.6 1014342
09:00+7se3595100 2.9 1013345
12:00+7ese2497100 2.3 1013195
15:00+9se128666 2.7 1012375
18:00+7s119419 0.4 101342
21:00+5wsw229854 0.4 101449
7 october, fri
fri700:00+7sw2497100 0.0 1013146
03:00+7ssw3797100 0.0 1013268
06:00+5sw499613 0.1 1012320
09:00+7sw61280100 0.1 1011706
12:00+6sw61291100 1.1 1009718
15:00+7wsw51195100 2.7 1009558
18:00+8wsw5129090 0.1 1010637
21:00+8w51291100 0.3 1011843
8 october, sat
sat800:00+8wnw71286100 0.8 1012835
03:00+7wnw61288100 1.3 10141094
06:00+7wnw61286100 0.4 1016869
09:00+8wnw598347 0.4 1018740
12:00+8w5774100 0.0 1019878
15:00+10wsw487298 0.0 1019891
18:00+7sw399139 0.0 1019233
21:00+7sw4109330 0.0 1019272